www.pogodaiklimat.ru

Погода и климат >> Архив погоды >> Канада >> Нунавут >> Йоа-Хейвен


ПОГОДА в Йоа-Хейвен

  • Прогноз погоды в Йоа-Хейвен
  • Монитор погоды в Йоа-Хейвен

АРХИВ ПОГОДЫ в Йоа-Хейвен

Время (UTC), дата Ветер
(напр.,м/с)
 
Видим.   Явления Облачность Т
(С)
Тd
(С)
f
(%)
Тe
(С)
Тes
(С)
Комфортность P
(гПа)
Po
(гПа)
Тmin
(С)
Tmax
(С)
R
(мм)
R24
(мм)
S
(см)
03 12.03 ЮВ 5 16 км ясно -25.2 -27.4 82 -36 -36 опасность
обморожения
1003.8 997.4
06 12.03 ЮВ 6 16 км ясно -25.8 -28.2 80 -38 -38 опасность
обморожения
1004.4 998.0 -25.9 -21.1 72
09 12.03 ЮВ 6 16 км ясно -26.0 -28.4 80 -38 -38 опасность
обморожения
1004.9 998.5
12 12.03 ЮВ 5 16 км ясно -26.4 -29.0 79 -38 -37 опасность
обморожения
1006.1 999.7 -26.8 -21.1
15 12.03 В 3 16 км ясно -27.4 -30.1 78 -37 -29 опасность
обморожения
1006.6 1000.2
18 12.03 В 4 16 км ясно -25.4 -27.8 80 -36 -31 опасность
обморожения
1007.5 1001.1 -28.2 -25.4
21 12.03 ЮВ 5 16 км ясно -23.5 -25.6 83 -35 -34 опасность
обморожения
1007.6 1001.2
00 13.03 Ю 5 16 км ясно -24.2 -26.3 83 -35 -35 опасность
обморожения
1008.7 1002.3 -28.2 -23.2
03 13.03 Ю 4 16 км ясно -25.2 -27.4 82 -35 -35 опасность
обморожения
1010.0 1003.5
06 13.03 Ю 3 16 км 3/3 300 м
[]
-25.1 -27.5 80 -33 -33 опасность
обморожения
1010.9 1004.4 -28.2 -23.2
09 13.03 Ю 5 16 км ясно -27.5 -30.0 79 -40 -40 опасность
обморожения
1011.2 1004.7
12 13.03 Ю 3 16 км 10/10 300 м
[]
-27.0 -29.5 79 -35 -35 опасность
обморожения
1013.1 1006.6 -27.9 -23.2
15 13.03 Ю 3 16 км 10/10 300 м
[]
-25.6 -28.0 80 -34 -34 опасность
обморожения
1014.0 1007.5
18 13.03 ЮЗ 5 6000 м дымка 10/10 300 м
[]
-23.6 -25.7 83 -34 -34 опасность
обморожения
1015.2 1008.7 -27.9 -23.6
21 13.03 З 3 11 км слаб. снег 10/10 300 м
[]
-23.3 -25.4 83 -32 -32 опасность
обморожения
1017.4 1010.9
00 14.03 З 4 16 км слаб. снег 10/10 300 м
[]
-24.4 -26.7 81 -34 -34 опасность
обморожения
1019.0 1012.5 -27.9 -23.2
03 14.03 З 4 16 км слаб. снег 10/10 200 м
[]
-25.6 -28.0 80 -36 -36 опасность
обморожения
1020.5 1014.0
06 14.03 СЗ 3 16 км 10/10 600 м
[]
-24.9 -27.1 82 -34 -34 опасность
обморожения
1021.2 1014.7 -27.9 -23.2
09 14.03 С 7 12 км слаб. снег 10/10 1500 м
[]
-24.0 -26.1 83 -37 -37 опасность
обморожения
1022.7 1016.2
12 14.03 С 7 11 км 10/0
[]
-25.2 -27.4 82 -39 -38 опасность
обморожения
1023.6 1017.1 -25.7 -23.2
15 14.03 С 8 2000 м слаб. снег 10/0
[]
-27.2 -29.8 78 -42 -41 опасность
обморожения
1024.3 1017.7
18 14.03 С 7 8000 м дымка 9/0
[]
-29.6 -32.4 77 -44 -42 опасность
обморожения
1024.4 1017.8 -29.6 -23.8
21 14.03 С 7 4000 м дымка ясно -28.7 -31.4 77 -43 -43 опасность
обморожения
1024.8 1018.2
00 15.03 С 7 11 км ясно -30.4 -33.4 75 -45 -45 опасность
обморожения
1025.9 1019.3 -30.4 -25.2
03 15.03 С 7 16 км ясно -32.1 -35.2 74 -47 -47 опасность
обморожения
1026.6 1020.0
06 15.03 С 7 16 км ясно -34.2 -37.6 71 -50 -50 опасность
обморожения
1026.6 1019.9 -34.2 -23.8 141
09 15.03 С 7 16 км ясно -35.0 -38.4 71 -51 -51 опасность
обморожения
1027.0 1020.3
12 15.03 С 7 16 км ясно -35.9 -39.4 70 -52 -52 опасность
обморожения
1027.6 1020.9 -35.9 -23.8
15 15.03 С 5 16 км ясно -35.3 -38.8 70 -49 -45 опасность
обморожения
1028.0 1021.3
18 15.03 С 3 16 км ясно -32.0 -35.2 73 -42 -36 опасность
обморожения
1028.3 1021.6 -36.2 -32.0
21 15.03 С 4 16 км ясно -28.9 -31.8 76 -39 -39 опасность
обморожения
1028.7 1022.0
00 16.03 С 7 16 км ясно -29.4 -32.2 77 -44 -44 опасность
обморожения
1029.3 1022.6 -36.2 -28.4
03 16.03 С 5 16 км ясно -30.0 -32.9 76 -42 -42 опасность
обморожения
1028.9 1022.2
06 16.03 С 4 16 км ясно -28.9 -31.1 81 -40 -40 опасность
обморожения
1028.4 1021.8 -36.2 -28.4
09 16.03 СЗ 4 16 км ясно -30.0 -32.7 77 -41 -41 опасность
обморожения
1028.1 1021.5
12 16.03 ЮЗ 2 16 км ясно -32.0 -35.1 74 -40 -38 опасность
обморожения
1028.2 1021.5 -32.4 -28.4
15 16.03 СЗ 2 16 км ясно -30.4 -33.4 75 -37 -27 опасность
обморожения
1027.7 1021.1
18 16.03 ЮЗ 4 16 км ясно -29.7 -32.7 75 -40 -35 опасность
обморожения
1027.2 1020.6 -32.4 -28.3
21 16.03 ЮЗ 5 16 км ясно -28.5 -31.4 76 -40 -40 опасность
обморожения
1026.4 1019.8
00 17.03 Ю 4 16 км 5/0
[]
-29.7 -32.6 76 -40 -40 опасность
обморожения
1025.5 1018.9 -32.4 -28.1
03 17.03 ЮВ 4 16 км 10/0
[]
-29.8 -32.6 76 -41 -41 опасность
обморожения
1024.1 1017.5
06 17.03 ЮВ 4 16 км 10/10 1000 м
[]
-27.3 -29.9 78 -37 -37 опасность
обморожения
1022.6 1016.0 -32.4 -27.0
09 17.03 В 2 16 км слаб. снег 10/0 2000 м
[]
-26.0 -28.4 80 -33 -33 опасность
обморожения
1022.2 1015.6
12 17.03 В 4 9000 м слаб. снег 10/10 1500 м
[]
-25.0 -27.4 80 -35 -35 опасность
обморожения
1021.9 1015.3 -30.4 -27.0 0.0
15 17.03 В 5 11 км слаб. снег ясно -27.6 -30.3 78 -39 -34 опасность
обморожения
1021.9 1015.3
18 17.03 СВ 4 16 км ясно -28.5 -31.4 76 -40 -34 опасность
обморожения
1022.6 1016.0 -30.4 -25.0
21 17.03 СВ 5 16 км ясно -27.7 -30.5 77 -40 -39 опасность
обморожения
1023.4 1016.8
00 18.03 С 7 16 км ясно -28.4 -31.3 76 -42 -42 опасность
обморожения
1023.5 1016.9 -29.2 -25.0
03 18.03 С 7 4800 м дымка ясно -29.6 -32.3 77 -44 -44 опасность
обморожения
1023.6 1017.0
06 18.03 С 5 16 км ясно -31.9 -34.8 75 -45 -45 опасность
обморожения
1022.6 1016.0 -32.2 -25.0
09 18.03 С 3 16 км ясно -31.4 -34.5 74 -40 -40 опасность
обморожения
1022.5 1015.9
12 18.03 Ю 2 16 км ясно -29.6 -32.4 77 -36 -33 опасность
обморожения
1021.3 1014.7 -34.0 -25.0
15 18.03 Ю 2 16 км ясно -29.4 -32.4 75 -35 -25 опасность
обморожения
1018.7 1012.1
18 18.03 Ю 2 16 км ясно -28.9 -31.8 76 -36 -28 опасность
обморожения
1016.2 1009.6 -34.0 -28.6
21 18.03 В 5 8000 м дым 10/10 600 м
[]
-25.4 -27.9 80 -37 -37 опасность
обморожения
1013.6 1007.1
00 19.03 В 4 4800 м слаб. снег 10/10 1000 м
[]
-25.5 -27.9 80 -36 -36 опасность
обморожения
1012.0 1005.5 -34.0 -25.4

 

Местоположение метеостанции Йоа-Хейвен (Нунавут, Канада): широта 46.55 долгота -61.05 высота над уровнем моря 13 м.

В архиве по умолчанию представлена погода в Йоа-Хейвен за последнюю неделю. Архивные данные за месяц целиком и за предыдущие месяцы, начиная с января 2011 года, Вы можете получить, выбрав интересующий диапазон дат из раскрывающегося списка и нажав кнопку "Ввод!".


*Определитесь, кто Вы:
робот инопланетянин человек

Внимание! Время в таблицах - всемирное. Для получения местного времени необходимо прибавить поправку, которая равна -4 ч.

Смотрите также архив погоды в соседних городах и на ближайших метеорологических станциях:

Погода в Четикемпе (Новая Шотландия, Канада) (13 км)
Погода в Норд Маунтин (Новая Шотландия, Канада) (42 км)
Погода в Ингониш Бич (Новая Шотландия, Канада) (51 км)
Погода на Восток Поинт (Остров Принца Эдуарда, Канада) (71 км)
Погода в Сиднее (Новая Шотландия, Канада) (88 км)
Погода в Сидней аэропорту (Новая Шотландия, Канада) (88 км)
Погода на Острове Святого Павла (Новая Шотландия, Канада) (103 км)
Погода в Порт-Хоксбери (Новая Шотландия, Канада) (103 км)
Погода на Острове Авр Окс Мэзон (Квебек, Канада) (111 км)
Погода на Острове Авр Окс Мэзон 2 (Квебек, Канада) (111 км)

Пояснения к столбцам:

Ветер - указаны скорость ветра в м/с - средняя за 10 мин, порывы в срок и между сроками (в фигурных скобках) и направление, откуда дует ветер: С - северный, СВ - северо-восточный, В - восточный, ЮВ - юго-восточный, Ю - южный, ЮЗ - юго-западный, З - западный, СЗ - северо-западный.
Видимость - горизонтальная дальность видимости в метрах или километрах. При видимости от 1 до 10 км при отсутствии осадков обычно наблюдается дымка, при ухудшении видимости до 1 км и менее - туман. В сухую погоду видимость может ухудшаться дымом, пылью или мглою.
Явления - указаны атмосферные явления, наблюдавшиеся в срок или в последний час перед сроком; фигурными скобками обозначены явления, наблюдавшиеся между сроками (за 1-3 часа до срока); квадратными скобками обозначены град или гололедные отложения с указанием их диаметра в мм.
Облачность - указаны через наклонную черту общая и нижняя облачность в баллах и высота нижней границы облаков в метрах; квадратными скобками обозначены формы облаков: Ci - перистые, Cs - перисто-слоистые, Cc - перисто-кучевые, Ac - высококучевые, As - высокослоистые, Sc - слоисто-кучевые, Ns - слоисто-дождевые, Cu - кучевые, Cb - кучево-дождевые. Подробнее классификацию облаков см. в Атласе облаков (PDF).
T - Температура воздуха - температура, измеренная на высоте 2 м над землей.
Td - Температура точки росы - температура, при понижении до которой содержащийся в воздухе водяной пар достигнет насыщения.
f - Относительная влажность воздуха - влажноcть воздуха, измеренная на высоте 2 м над землей.
Te - Эффективная температура - температура, которую ощущает одетый по сезону человек в тени. Характеристика душности погоды. При расчете учитывается влияние влажности воздуха и скорости ветра на теплоощущения человека.
Tes - Эффективная температура на солнце - температура, которую ощущает человек, с поправкой на солнечный нагрев. Характеристика знойности погоды. Зависит от высоты солнца над горизонтом, облачности и скорости ветра. Ночью, в пасмурную погоду, а также при ветре 12 м/с и более поправка равна нулю.
P - Атмосферное давление - приведенное к уровню моря атмосферное давление.
Po - Атмосферное давление - измеренное на уровне метеостанции атмосферное давление.
Tmin - Минимальная температура - минимум температуры воздуха на высоте 2 м над землей.
Tmax - Максимальная температура - максимум температуры воздуха на высоте 2 м над землей.
R - Количество осадков - Количество выпавших осадков за период времени, мм. При наведении курсора мыши на число - период времени, за который выпало указанное количество осадков.
R24 - Количество осадков - Количество выпавших осадков за 24 часа, мм.
S - Снежный покров - Высота снежного покрова, см. При наведении курсора мыши на число - состояние снежного покрова и степень покрытия местности в баллах.